Terminal Aerodrome Forecast
Issued by NWS Houston/Galveston TX

Home | Current Version | Previous Version | Text Only | Print | Product List | Glossary On
Versions: 1 2 3 4 5 6 7 8 9 10 11 12 13 14 15 16 17 18 19 20 21 22 23 24 25 26 27 28 29 30 31 32 33 34 35 36 37 38 39 40 41 42 43 44 45 46 47 48 49 50
000
FTUS44 KHGX 271120
TAFHOU
TAF
KHOU 271120Z 2712/2812 04007KT P6SM SCT100 BKN250
     FM271500 06010KT P6SM VCSH SCT035 BKN250
     FM271900 09011KT P6SM VCTS SCT040CB BKN250
     FM280300 11005KT P6SM BKN250=

USA.gov is the U.S. government's official web portal to all federal, state and local government web resources and services.